Hourly Data Report for October 12, 2014

All times are specified in Local Standard Time (LST). Add 1 hour to adjust for Daylight Saving Time where and when it is observed.

BATHURST A
NEW BRUNSWICK

47°37'47.000" N
65°44'20.000" W
58.80 m
8100505
71574
ZBF

Download Data

Hourly Data (October 2014)
Hourly Data Report for October 12, 2014
Temp Definition
°C
Dew Point Temp Definition
°C
Rel Hum Definition
%
Wind Dir Definition
10's deg

Wind Spd Definition
km/h
Visibility Definition
km
Stn Press Definition
kPa
Hmdx Definition


Wind Chill Definition


Weather Definition


TIME
00:00 Legend Double Dagger -0.4 -1.0 96 24 6 24.1 100.84   -2 LegendNANA
01:00 Legend Double Dagger -0.4 -1.0 96 23 7 24.1 100.83   -3 LegendNANA
02:00 Legend Double Dagger -0.5 -0.9 97 25 5 24.1 100.81   -2 Clear
03:00 Legend Double Dagger 0.0 -0.6 96 18 7 24.1 100.84   -2 LegendNANA
04:00 Legend Double Dagger 0.4 -0.5 94 25 11 24.1 100.84     LegendNANA
05:00 Legend Double Dagger 0.1 -1.1 92 30 4 24.1 100.86     Clear
06:00 Legend Double Dagger 2.8 1.6 92 29 9 24.1 100.91     LegendNANA
07:00 Legend Double Dagger 4.6 2.1 84 30 11 24.1 100.95     LegendNANA
08:00 Legend Double Dagger 6.1 2.2 76 30 12 24.1 101.03     Mainly Clear
09:00 Legend Double Dagger 7.6 1.9 67 30 18 24.1 101.07     LegendNANA
10:00 Legend Double Dagger 8.8 1.0 58 31 21 24.1 101.14     LegendNANA
11:00 Legend Double Dagger 9.8 0.7 53 31 13 24.1 101.15     Mainly Clear
12:00 Legend Double Dagger 10.7 0.5 49 30 7 24.1 101.18     LegendNANA
13:00 Legend Double Dagger 10.9 -0.8 44 33 14 24.1 101.18     LegendNANA
14:00 Legend Double Dagger 11.7 -0.7 42 31 16 24.1 101.17     Clear
15:00 Legend Double Dagger 11.9 -0.9 41 31 16 24.1 101.20     LegendNANA
16:00 Legend Double Dagger 11.8 -1.0 41 32 14 24.1 101.23     LegendNANA
17:00 Legend Double Dagger 10.8 -1.6 42 30 7 24.1 101.27     Clear
18:00 Legend Double Dagger 6.7 0.4 64 36 2 24.1 101.31     LegendNANA
19:00 Legend Double Dagger 2.7 0.3 84 20 3 24.1 101.37     LegendNANA
20:00 Legend Double Dagger 3.1 -0.4 78 27 9 24.1 101.41     Clear
21:00 Legend Double Dagger 2.9 -0.2 80 16 5 24.1 101.45     LegendNANA
22:00 Legend Double Dagger 2.1 -0.8 81 25 9 24.1 101.42     LegendNANA
23:00 Legend Double Dagger 2.2 -0.4 83 26 8 24.1 101.47     Clear

Notes on Data Quality.

Legend

  • E = Estimated
  • M = Missing
  • NA = Not Available
  • ‡ = Partner data that is not subject to review by the National Climate Archives
Date modified: